Le nostre stazioni meteo in Italia

Pubblicità
Il mio iltempo24.it
Capo Carbonara, Italia (16564): Temperatura & dewpoint: 17.01.2019 05:00:00 - 23.01.2019 05:00:00 (CET)Capo Carbonara, Italia (16564): velocità del vento: 17.01.2019 05:00:00 - 23.01.2019 05:00:00 (CET)Capo Carbonara, Italia (16564): direzione del vento: 17.01.2019 05:00:00 - 23.01.2019 05:00:00 (CET)Capo Carbonara, Italia (16564): reduced air pressure: 17.01.2019 05:00:00 - 23.01.2019 05:00:00 (CET)Capo Carbonara, Italia (16564): visibility: 17.01.2019 05:00:00 - 23.01.2019 05:00:00 (CET)
Data & Tempo tt [°C] td [°C] ff [km/h] ff [kn] dd ppp [hPa] vv [km]
23.01.2019 05:00:00 - - - - - - -
23.01.2019 04:00:00 8,0 6,5 26 14 O 1002,8 20
23.01.2019 03:00:00 8,0 6,0 26 14 ONO - 10
23.01.2019 02:00:00 8,0 6,0 48 26 O - 10
23.01.2019 01:00:00 8,4 5,5 35 19 O 1004,1 20
23.01.2019 00:00:00 8,0 6,0 35 19 O - 10
22.01.2019 23:00:00 9,0 6,0 24 13 O - 10
22.01.2019 22:00:00 8,8 7,1 31 17 O 1006,2 20
22.01.2019 21:00:00 9,0 7,0 31 17 O - 10
22.01.2019 20:00:00 9,0 5,0 35 19 O - 10
22.01.2019 19:00:00 9,4 6,1 41 22 O 1006,2 20
22.01.2019 18:00:00 10,0 7,0 48 26 O - 10
22.01.2019 17:00:00 10,0 6,0 42 23 O - 10
22.01.2019 16:00:00 10,2 6,1 55 30 O 1006,0 20
22.01.2019 15:00:00 10,0 7,0 57 31 O - 10
22.01.2019 14:00:00 10,0 7,0 59 32 O - 10
22.01.2019 13:00:00 9,8 6,5 50 27 O 1007,6 20
22.01.2019 12:00:00 9,0 6,0 42 23 O - 10
22.01.2019 11:00:00 9,0 6,0 46 25 O - 10
22.01.2019 10:00:00 8,0 6,2 41 22 O 1008,9 20
22.01.2019 09:00:00 8,0 6,0 39 21 O - 10
22.01.2019 08:00:00 8,0 6,0 34 18 O - 10
22.01.2019 07:00:00 8,2 6,1 39 21 ONO 1008,7 20
22.01.2019 06:00:00 8,0 6,0 26 14 O - 10
22.01.2019 05:00:00 8,0 6,0 29 16 ONO - 10
22.01.2019 04:00:00 8,0 4,7 35 19 ONO 1008,6 20
22.01.2019 03:00:00 8,0 6,0 18 10 OSO - 10
22.01.2019 02:00:00 9,0 6,0 26 14 ONO - 10
22.01.2019 01:00:00 8,6 6,0 29 16 O 1008,3 10
22.01.2019 00:00:00 9,0 6,0 18 10 O - 10
21.01.2019 23:00:00 9,0 7,0 13 7 OSO - 10
21.01.2019 22:00:00 9,2 6,8 24 13 O 1007,4 10
21.01.2019 21:00:00 10,0 8,0 5 3 - - 10
21.01.2019 20:00:00 10,0 8,0 13 7 ENE - 10
21.01.2019 19:00:00 10,6 8,4 15 8 NO 1005,7 10
21.01.2019 18:00:00 11,0 9,0 29 16 NE - 10
21.01.2019 17:00:00 11,0 8,0 28 15 NE - 10
21.01.2019 16:00:00 11,0 8,8 29 16 NE 1005,2 10
21.01.2019 15:00:00 12,0 9,0 26 14 NE - 10
21.01.2019 14:00:00 11,0 9,0 26 14 NE - 10
21.01.2019 13:00:00 10,8 8,4 31 17 NNE 1006,0 10
21.01.2019 12:00:00 10,0 7,0 35 19 NNE - 10
21.01.2019 11:00:00 10,0 7,0 37 20 NNE - 10
21.01.2019 10:00:00 9,0 6,6 31 17 NNE 1006,8 10
21.01.2019 09:00:00 9,0 6,0 29 16 NNE - 10
21.01.2019 08:00:00 9,0 7,0 37 20 NNE - 10
21.01.2019 07:00:00 10,0 7,8 28 15 NNE 1006,9 10
21.01.2019 06:00:00 11,0 9,0 22 12 E - 10
21.01.2019 05:00:00 11,0 10,0 28 15 ESE - 10
21.01.2019 04:00:00 11,8 10,2 35 19 ESE 1007,6 20
21.01.2019 03:00:00 12,0 11,0 31 17 E - 10
21.01.2019 02:00:00 11,0 10,0 29 16 E - 10
21.01.2019 01:00:00 11,4 9,8 29 16 ESE 1010,0 20
21.01.2019 00:00:00 11,0 10,0 24 13 E - 10
20.01.2019 23:00:00 11,0 10,0 21 11 E - 10
20.01.2019 22:00:00 11,0 9,4 21 11 ESE 1010,7 20
20.01.2019 21:00:00 11,0 9,0 13 7 SE - 10
20.01.2019 20:00:00 11,0 9,0 4 2 E - 10
20.01.2019 19:00:00 11,2 8,9 9 5 S 1010,8 20
20.01.2019 18:00:00 11,0 9,0 8 4 SO - 10
20.01.2019 17:00:00 12,0 9,0 11 6 NO - 10
20.01.2019 16:00:00 11,8 9,2 18 10 O 1010,8 10
20.01.2019 15:00:00 14,0 8,0 21 11 O - 10
20.01.2019 14:00:00 13,0 8,0 28 15 SO - 10
20.01.2019 13:00:00 12,2 8,3 31 17 OSO 1011,6 20
20.01.2019 12:00:00 12,0 8,0 31 17 OSO - 10
20.01.2019 11:00:00 11,0 8,0 18 10 O - 10
20.01.2019 10:00:00 9,0 7,0 31 17 O - 10
20.01.2019 09:00:00 9,0 7,0 26 14 O - 10
20.01.2019 08:00:00 9,0 7,0 29 16 O - 10
20.01.2019 07:00:00 9,0 6,6 29 16 O 1011,3 10
20.01.2019 06:00:00 9,0 7,0 11 6 ONO - 10
20.01.2019 05:00:00 9,0 7,0 11 6 ONO - 10
20.01.2019 04:00:00 9,0 7,0 11 6 NNO 1012,3 10
20.01.2019 03:00:00 9,0 7,0 13 7 NNO - 10
20.01.2019 02:00:00 9,0 7,0 11 6 NE - 10
20.01.2019 01:00:00 9,0 6,6 11 6 NE 1012,4 10
20.01.2019 00:00:00 9,0 7,0 5 3 ENE - 10
19.01.2019 23:00:00 9,0 7,0 5 3 ENE - 10
19.01.2019 22:00:00 9,0 6,8 8 4 NE 1013,1 10
19.01.2019 21:00:00 10,0 8,0 8 4 ONO - 10
19.01.2019 20:00:00 11,0 10,0 21 11 S - 10
19.01.2019 19:00:00 11,0 8,5 0 0 N 1013,0 10
19.01.2019 18:00:00 11,0 9,0 13 7 O - 10
19.01.2019 17:00:00 11,0 8,0 21 11 SO - 10
19.01.2019 16:00:00 12,0 8,7 21 11 OSO 1013,2 10
19.01.2019 15:00:00 12,0 9,0 24 13 OSO - 10
19.01.2019 14:00:00 13,0 9,0 24 13 OSO - 10
19.01.2019 13:00:00 12,0 8,7 24 13 O 1014,2 10
19.01.2019 12:00:00 11,0 8,0 21 11 O - 10
19.01.2019 11:00:00 11,0 8,0 15 8 SSE - 10
19.01.2019 10:00:00 9,4 7,4 5 3 O 1014,4 10
19.01.2019 09:00:00 9,0 7,0 0 0 N - 10
19.01.2019 08:00:00 10,0 6,0 0 0 N - 10
19.01.2019 07:00:00 9,4 5,6 4 2 ONO 1014,8 10
19.01.2019 06:00:00 10,0 6,0 8 4 ENE - 10
19.01.2019 05:00:00 10,0 4,0 11 6 E - 10
19.01.2019 04:00:00 9,6 4,6 13 7 E 1014,7 10
19.01.2019 03:00:00 10,0 6,0 5 3 NNO - 10
19.01.2019 02:00:00 10,0 5,0 15 8 O - 10
19.01.2019 01:00:00 10,0 4,8 15 8 O 1014,9 10
19.01.2019 00:00:00 10,0 4,0 18 10 ONO - 10
18.01.2019 23:00:00 10,0 6,0 24 13 O - 10
18.01.2019 22:00:00 10,0 6,5 29 16 O 1014,2 10
18.01.2019 21:00:00 10,0 7,0 22 12 ONO - 10
18.01.2019 20:00:00 10,0 6,0 34 18 O - 10
18.01.2019 19:00:00 11,8 4,3 11 6 NNO 1014,0 10
18.01.2019 18:00:00 12,0 9,0 26 14 O - 10
18.01.2019 17:00:00 14,0 9,0 22 12 ONO - 10
18.01.2019 16:00:00 15,0 10,4 44 24 O 1012,8 20
18.01.2019 15:00:00 14,0 10,0 39 21 OSO - 10
18.01.2019 14:00:00 14,0 11,0 37 20 OSO - 10
18.01.2019 13:00:00 12,2 10,3 34 18 O 1013,8 10
18.01.2019 12:00:00 12,0 10,0 34 18 OSO - 10
18.01.2019 11:00:00 13,0 11,0 24 13 OSO - 10
18.01.2019 10:00:00 11,0 8,9 24 13 OSO 1014,4 10
18.01.2019 09:00:00 11,0 9,0 28 15 O - 10
18.01.2019 08:00:00 11,0 9,0 18 10 OSO - 10
18.01.2019 07:00:00 10,6 9,4 16 9 OSO 1014,3 10
18.01.2019 06:00:00 11,0 9,0 15 8 SO - 10
18.01.2019 05:00:00 11,0 9,0 11 6 O - 10
18.01.2019 04:00:00 11,0 9,3 15 8 O 1014,4 10
18.01.2019 03:00:00 11,0 9,0 16 9 O - 10
18.01.2019 02:00:00 11,0 9,0 26 14 ONO - 10
18.01.2019 01:00:00 11,2 8,7 28 15 O 1015,5 10
18.01.2019 00:00:00 11,0 9,0 34 18 O - 10
17.01.2019 23:00:00 12,0 10,0 28 15 OSO - 10
17.01.2019 22:00:00 12,2 10,6 21 11 O 1015,6 10
17.01.2019 21:00:00 12,0 11,0 22 12 OSO - 10
17.01.2019 20:00:00 12,0 11,0 29 16 SO - 10
17.01.2019 19:00:00 12,4 10,8 24 13 SO 1015,6 10
17.01.2019 18:00:00 13,0 11,0 22 12 SO - 10
17.01.2019 17:00:00 13,0 11,0 24 13 SO - 10
17.01.2019 16:00:00 14,0 12,2 22 12 E 1015,5 10
17.01.2019 15:00:00 15,0 11,0 24 13 SO - 10
17.01.2019 14:00:00 15,0 11,0 26 14 SO - 10
17.01.2019 13:00:00 14,4 11,3 28 15 OSO 1016,2 10
17.01.2019 12:00:00 13,0 11,0 28 15 OSO - 10
17.01.2019 11:00:00 12,0 9,0 24 13 OSO - 10
17.01.2019 10:00:00 11,4 8,7 21 11 OSO 1017,1 10
17.01.2019 09:00:00 11,0 8,0 21 11 OSO - 10
17.01.2019 08:00:00 11,0 9,0 21 11 OSO - 9
17.01.2019 07:00:00 11,0 8,8 21 11 OSO 1016,7 4,0
17.01.2019 06:00:00 12,0 8,0 16 9 SO - 10
17.01.2019 05:00:00 13,0 9,0 16 9 SSO - 10

tt = Temperatura
td = dewpoint
ff = velocità del vento
dd = direzione del vento
ppp = reduced air pressure
vv = visibility

Stazioni seguenti

WeatherPro
AMSI
MeteoEarth